This is the latest recevied weather packets stored in our database for station/object M0JUI-1. If no packets are shown the sender has not sent any weather packets the latest 10 day(s).
| Time | Temp. | Humidity | Pressure | Rain* | Wind** | Luminosity | Snow |
|---|---|---|---|---|---|---|---|
| 1778088868 | 10.56° C | 97% | 1014.8 hPa | 0 mm | - | 78 W/m² | - |
| 1778088567 | 11.11° C | 97% | 1014.7 hPa | 0 mm | - | 97 W/m² | - |
| 1778088268 | 11.11° C | 97% | 1014.8 hPa | 0 mm | - | 144 W/m² | - |
| 1778087967 | 11.11° C | 96% | 1014.5 hPa | 0 mm | - | 168 W/m² | - |
| 1778087667 | 11.67° C | 95% | 1014.7 hPa | 0 mm | - | 130 W/m² | - |
| 1778087367 | 11.11° C | 94% | 1014.7 hPa | 0 mm | - | 116 W/m² | - |
| 1778087067 | 11.11° C | 94% | 1014.6 hPa | 0 mm | - | 116 W/m² | - |
| 1778086755 | 11.11° C | 91% | 1014.7 hPa | 0 mm | - | 127 W/m² | - |
| 1778086456 | 11.11° C | 91% | 1014.8 hPa | 0 mm | - | 145 W/m² | - |
| 1778086131 | 11.11° C | 89% | 1014.5 hPa | 0 mm | - | 129 W/m² | - |
| 1778085832 | 11.67° C | 87% | 1014.6 hPa | 0 mm | - | 143 W/m² | - |
| 1778085531 | 11.67° C | 85% | 1014.7 hPa | 0 mm | - | 224 W/m² | - |
| 1778085219 | 12.22° C | 77% | 1014.5 hPa | 0 mm | - | 293 W/m² | - |
| 1778084919 | 11.67° C | 76% | 1014.8 hPa | 0 mm | - | 193 W/m² | - |
| 1778084619 | 11.67° C | 77% | 1014.8 hPa | 0 mm | - | 173 W/m² | - |
| 1778084320 | 11.67° C | 77% | 1014.7 hPa | 0 mm | - | 173 W/m² | - |
| 1778084020 | 11.67° C | 77% | 1014.7 hPa | 0 mm | - | 160 W/m² | - |
| 1778083708 | 11.67° C | 78% | 1014.7 hPa | 0 mm | - | 137 W/m² | - |
| 1778083408 | 11.67° C | 78% | 1014.7 hPa | 0 mm | - | 135 W/m² | - |
| 1778083107 | 11.67° C | 77% | 1014.7 hPa | 0 mm | - | 140 W/m² | - |
| 1778082808 | 12.22° C | 77% | 1014.8 hPa | 0 mm | - | 144 W/m² | - |
| 1778082508 | 12.22° C | 79% | 1014.7 hPa | 0 mm | - | 181 W/m² | - |
| 1778082195 | 12.22° C | 79% | 1014.7 hPa | 0 mm | - | 239 W/m² | - |
| 1778081896 | 12.22° C | 81% | 1014.7 hPa | 0 mm | - | 427 W/m² | - |
| 1778081596 | 12.22° C | 80% | 1014.7 hPa | 0 mm | - | 309 W/m² | - |
* Rain latest hour (hover to see other rain measurements)
** Current wind speed in m/s (hover to see current wind gust speed)